STARLINK-11587, 63310

Orbit data source: Space-Track

STARLINK-11587, 63310 is a payload satellite owned by SpaceX/Seattle (US) in LEO that was launched on Tue, 18 Mar 2025 UTC via an FALCON 9 launch vehicle from the Air Force Eastern Test Range (AFETR). Payload-class satellites include a variety of spacecraft equipped with specific instruments for various scientific and technological missions. These include communications satellites like Starlink; space stations such as the ISS; scientific satellites like the Hubble; Earth observation satellites from companies like Planet Labs, Umbra, and HawkEye 360; GPS; miniature CubeSats for education and research; and military/defense satellites.

Loading next visibility...
Identifier
63310, 2025-057D
Orbit
LEO
Country
Flag of USUS
Related business
Manufacturer
SpaceX/Seattle
Mission
Operational Commercial Communications
Bus & Motor
STARLINK V2MD, Unknown motor
Mass
960 kg wet, ~910 kg dry
Launch date (UTC)
2025-03-18 (1 year ago)
Launch vehicle
FALCON 9
Launch site
Air Force Eastern Test Range (AFETR)
Object type
Payload
Rocket body
Debris
Shape & HBR
Box + 2 Pan, 18.1 m
Radar Cross Section
36.964 m², Large (>1 m²)

Expand to show TLE details & history
Last TLE update: 12 hours ago

TLE from 12 hours ago
0 STARLINK-11587
1 63310U 25057D   26126.61323382  .00108481  00000-0  83771-3 0  9998
2 63310  42.9996 275.7297 0001816 253.3705 106.6963 15.70845532 66287
Epoch: 2026-05-06T14:43Z
TLE epoch observation values (Epoch: 2026-05-06T14:43:03.402Z)
Latitude
-0.00002°
Longitude
-169.50571°
Altitude
356.602 km
Speed
7.697 km/s
True Right ascension
18h 22m 55s
True Declination
0° 00' 00"
Sunlit
Object was in full shadow at epoch
Visualization orbit readout
Latitude
Unknown
Longitude
Unknown
Altitude
Unknown
Speed
Unknown
Apparent Right ascension
Unknown
Apparent Declination
Unknown
Sunlit
N/A
Visualization observer readout
Local Sidereal Time
10:32:41
Azimuth
Unknown
Elevation
Unknown
Doppler factor
Unknown
Orbital elements
Apogee altitude
359.684 km
Perigee altitude
357.238 km
Semi-major axis
6,736.598 km
Eccentricity
0.00018
Inclination
42.9996°
RAAN
275.7297°
Arg. of periapsis
253.3705°
True anomaly
106.71623°
Mean anomaly
106.6963°
Eccentric anomaly
106.70627°
Mean motion
3.92538 °/min
Orbital period
91.71 mins
BSTAR
0.00083771
Loading maneuver chart data...
Computing Atmospheric mass density...
Loading historical data...
Loading historical data...
Loading historical data...
Loading historical data...
Loading historical data...
Loading historical data...
Loading historical data...

Documentation

Showing up to 5 results
|